Weather History for Visalia, CA

Change the Weather History Date:

Saturday, September 28, 2013

  Actual Average Record
Temperature  
Mean Temperature 65 °F -  
Max Temperature 84 °F 84 °F 103 °F (1963)
Min Temperature 46 °F 57 °F 45 °F (1929)
Growing Degree Days 15 (Base 50)    
Moisture  
Dew Point 39 °F    
Average Humidity 44    
Maximum Humidity 71    
Minimum Humidity 19    
Precipitation  
Precipitation 0.00 in - - ()
Sea Level Pressure  
Sea Level Pressure 30.04 in    
Wind  
Wind Speed 2 mph (SE)    
Max Wind Speed 6 mph    
Max Gust Speed -    
Visibility 10 miles    
Events      
Averages and records for this station are not official NWS values.
T = Trace of Precipitation, MM = Missing Value Source: NWS Daily Summary

Daily Weather History Graph

Daily Weather History Graph

Search for Another Location

Airport:

Trip Planner

Search our weather history database for the weather conditions in past years. The results will help you decide how hot, cold, wet, or windy it might be!

Date:

Astronomy

Sep. 28, 2013 Rise Set
Actual Time 6:50 AM PDT 6:45 PM PDT
Civil Twilight 6:24 AM PDT 7:10 PM PDT
Nautical Twilight 5:55 AM PDT 7:40 PM PDT
Astronomical Twilight 5:24 AM PDT 8:10 PM PDT
Moon 12:51 AM PDT (9/28) 2:58 PM PDT (9/28)
Length of Visible Light 12h 45m
Length of Day
11h 54m
Waning Crescent, 35% of the Moon is Illuminated
Sep 28
Waning Crescent
Oct 4
New
Oct 11
First Quarter
Oct 18
Full
Oct 26
Last Quarter

Hourly Weather History & Observations

Time (PDT) Temp. Windchill Dew Point Humidity Pressure Visibility Wind Dir Wind Speed Gust Speed Precip Events Conditions
12:15 AM 53.6 °F - 37.4 °F 54% 30.06 in 10.0 mi Calm Calm - N/A   Clear
12:35 AM 53.6 °F - 37.4 °F 54% 30.06 in 10.0 mi Calm Calm - N/A   Clear
12:55 AM 53.6 °F - 39.2 °F 58% 30.06 in 10.0 mi Calm Calm - N/A   Clear
1:15 AM 53.6 °F - 37.4 °F 54% 30.06 in 10.0 mi Calm Calm - N/A   Clear
1:35 AM 53.6 °F - 37.4 °F 54% 30.06 in 10.0 mi Calm Calm - N/A   Clear
1:55 AM 51.8 °F - 37.4 °F 58% 30.06 in 10.0 mi Calm Calm - N/A   Clear
2:15 AM 51.8 °F - 37.4 °F 58% 30.06 in 10.0 mi Calm Calm - N/A   Clear
2:35 AM 50.0 °F - 37.4 °F 62% 30.06 in 10.0 mi Calm Calm - N/A   Clear
2:55 AM 51.8 °F - 37.4 °F 58% 30.06 in 10.0 mi Calm Calm - N/A   Clear
3:15 AM 48.2 °F - 37.4 °F 66% 30.06 in 10.0 mi Calm Calm - N/A   Clear
3:35 AM 48.2 °F - 37.4 °F 66% 30.06 in 10.0 mi ESE 3.5 mph - N/A   Clear
3:55 AM 50.0 °F - 39.2 °F 66% 30.06 in 10.0 mi ESE 4.6 mph - N/A   Clear
4:15 AM 48.2 °F - 37.4 °F 66% 30.06 in 10.0 mi SSE 4.6 mph - N/A   Clear
4:35 AM 48.2 °F - 37.4 °F 66% 30.06 in 10.0 mi SSE 3.5 mph - N/A   Clear
4:55 AM 48.2 °F - 39.2 °F 71% 30.06 in 10.0 mi SE 4.6 mph - N/A   Clear
5:15 AM 48.2 °F - 37.4 °F 66% 30.06 in 10.0 mi SE 4.6 mph - N/A   Clear
5:35 AM 48.2 °F - 37.4 °F 66% 30.06 in 10.0 mi SE 5.8 mph - N/A   Clear
5:55 AM 46.4 °F 43.5 °F 35.6 °F 66% 30.06 in 10.0 mi SE 5.8 mph - N/A   Clear
6:15 AM 48.2 °F - 37.4 °F 66% 30.06 in 10.0 mi SE 4.6 mph - N/A   Clear
6:35 AM 46.4 °F 45.2 °F 35.6 °F 66% 30.07 in 10.0 mi SE 3.5 mph - N/A   Clear
6:55 AM 46.4 °F 45.2 °F 35.6 °F 66% 30.07 in 10.0 mi SSE 3.5 mph - N/A   Clear
7:15 AM 48.2 °F - 37.4 °F 66% 30.07 in 10.0 mi SE 3.5 mph - N/A   Clear
7:35 AM 50.0 °F - 37.4 °F 62% 30.08 in 10.0 mi Calm Calm - N/A   Clear
7:55 AM 51.8 °F - 39.2 °F 62% 30.08 in 10.0 mi ESE 4.6 mph - N/A   Clear
8:15 AM 53.6 °F - 39.2 °F 58% 30.08 in 10.0 mi SSE 4.6 mph - N/A   Clear
8:35 AM 55.4 °F - 39.2 °F 54% 30.09 in 10.0 mi SSE 4.6 mph - N/A   Clear
8:55 AM 55.4 °F - 39.2 °F 54% 30.09 in 10.0 mi SSE 3.5 mph - N/A   Clear
9:15 AM 59.0 °F - 41.0 °F 51% 30.10 in 10.0 mi SSE 3.5 mph - N/A   Clear
9:35 AM 60.8 °F - 42.8 °F 52% 30.10 in 10.0 mi Calm Calm - N/A   Clear
9:55 AM 62.6 °F - 42.8 °F 48% 30.10 in 10.0 mi Calm Calm - N/A   Clear
10:15 AM 64.4 °F - 42.8 °F 45% 30.10 in 10.0 mi Calm Calm - N/A   Clear
10:35 AM 66.2 °F - 44.6 °F 46% 30.10 in 10.0 mi South 3.5 mph - N/A   Clear
10:55 AM 68.0 °F - 44.6 °F 43% 30.10 in 10.0 mi Calm Calm - N/A   Clear
11:15 AM 69.8 °F - 42.8 °F 38% 30.09 in 10.0 mi South 3.5 mph - N/A   Clear
11:35 AM 71.6 °F - 42.8 °F 35% 30.08 in 10.0 mi Calm Calm - N/A   Clear
11:55 AM 73.4 °F - 44.6 °F 36% 30.08 in 10.0 mi Calm Calm - N/A   Clear
12:15 PM 75.2 °F - 42.8 °F 31% 30.08 in 10.0 mi West 4.6 mph - N/A   Clear
12:35 PM 77.0 °F - 41.0 °F 28% 30.07 in 10.0 mi WSW 3.5 mph - N/A   Clear
12:55 PM 78.8 °F - 39.2 °F 24% 30.06 in 10.0 mi Calm Calm - N/A   Clear
1:15 PM 78.8 °F - 41.0 °F 26% 30.05 in 10.0 mi Calm Calm - N/A   Clear
1:35 PM 78.8 °F - 41.0 °F 26% 30.03 in 10.0 mi Calm Calm - N/A   Clear
1:55 PM 78.8 °F - 39.2 °F 24% 30.02 in 10.0 mi WNW 4.6 mph - N/A   Clear
2:15 PM 80.6 °F - 42.8 °F 26% 30.02 in 10.0 mi Calm Calm - N/A   Clear
2:35 PM 80.6 °F - 39.2 °F 23% 30.02 in 10.0 mi WNW 4.6 mph - N/A   Clear
2:55 PM 82.4 °F - 39.2 °F 21% 30.01 in 10.0 mi West 4.6 mph - N/A   Clear
3:15 PM 82.4 °F - 39.2 °F 21% 30.00 in 10.0 mi Calm Calm - N/A   Clear
3:35 PM 82.4 °F - 39.2 °F 21% 30.00 in 10.0 mi WNW 4.6 mph - N/A   Clear
3:55 PM 82.4 °F - 39.2 °F 21% 29.99 in 10.0 mi NW 3.5 mph - N/A   Clear
4:15 PM 82.4 °F - 37.4 °F 20% 29.98 in 10.0 mi WNW 4.6 mph - N/A   Clear
4:35 PM 84.2 °F - 37.4 °F 19% 29.98 in 10.0 mi NW 4.6 mph - N/A   Clear
4:55 PM 84.2 °F - 39.2 °F 20% 29.97 in 10.0 mi WNW 3.5 mph - N/A   Clear
5:15 PM 84.2 °F - 39.2 °F 20% 29.97 in 10.0 mi WNW 3.5 mph - N/A   Clear
5:35 PM 82.4 °F - 39.2 °F 21% 29.97 in 10.0 mi Calm Calm - N/A   Clear
5:55 PM 82.4 °F - 39.2 °F 21% 29.97 in 10.0 mi NW 3.5 mph - N/A   Clear
6:15 PM 80.6 °F - 37.4 °F 21% 29.97 in 10.0 mi NNW 3.5 mph - N/A   Clear
6:35 PM 78.8 °F - 37.4 °F 23% 29.97 in 10.0 mi North 3.5 mph - N/A   Clear
6:55 PM 73.4 °F - 37.4 °F 27% 29.97 in 10.0 mi NNE 3.5 mph - N/A   Clear
7:15 PM 71.6 °F - 39.2 °F 31% 29.97 in 10.0 mi NNE 3.5 mph - N/A   Clear
7:35 PM 69.8 °F - 41.0 °F 35% 29.99 in 10.0 mi NNE 3.5 mph - N/A   Clear
7:55 PM 69.8 °F - 41.0 °F 35% 29.99 in 10.0 mi Calm Calm - N/A   Clear
8:15 PM 69.8 °F - 41.0 °F 35% 30.00 in 10.0 mi Calm Calm - N/A   Clear
8:35 PM 66.2 °F - 42.8 °F 43% 30.01 in 10.0 mi Calm Calm - N/A   Clear
8:55 PM 62.6 °F - 39.2 °F 42% 30.02 in 10.0 mi Calm Calm - N/A   Clear
9:15 PM 64.4 °F - 41.0 °F 42% 30.02 in 10.0 mi Calm Calm - N/A   Clear
9:35 PM 62.6 °F - 41.0 °F 45% 30.03 in 10.0 mi Calm Calm - N/A   Clear
9:55 PM 59.0 °F - 39.2 °F 48% 30.03 in 10.0 mi Calm Calm - N/A   Clear
10:15 PM 59.0 °F - 39.2 °F 48% 30.03 in 10.0 mi SE 3.5 mph - N/A   Clear
10:35 PM 60.8 °F - 41.0 °F 48% 30.03 in 10.0 mi East 3.5 mph - N/A   Clear
10:55 PM 60.8 °F - 41.0 °F 48% 30.04 in 10.0 mi Calm Calm - N/A   Clear
11:15 PM 59.0 °F - 41.0 °F 51% 30.04 in 10.0 mi Calm Calm - N/A   Clear
11:35 PM 59.0 °F - 42.8 °F 55% 30.04 in 10.0 mi Calm Calm - N/A   Clear
11:55 PM 57.2 °F - 39.2 °F 51% 30.04 in 10.0 mi East 3.5 mph - N/A   Clear